[[{"header":{"parameterUnit":"m.s-1","parameterCategory":1,"la1":30.2991,"la2":30.254,"lo1":-89.0895,"lo2":-89.0444,"dy":0.0017,"dx":0.0017,"nx":28,"ny":28,"refTime":"2024-05-27T09:00:00:Z","depth":0,"parameterNumber":2,"parameterNumberName":"U-component_of_WINDS"},"data":[0,0,0,0,0,0,0,0,0,0,0,0,0,0,0,0,0,0,0,0,0,0,0,0,0,0,0,0,0,0,0,0,0,0,0,0,0,0,0,0,0,0,0,0,0,0,0,0,0,0,0,0,0,0,0,0,0,0,3.4312,3.4313,0,3.4401,3.4402,3.4403,3.4324,3.4321,3.4318,3.4315,3.4409,3.4415,3.442,0,0,0,0,0,0,0,0,0,0,0,0,0,3.4075,3.408,3.4312,3.4313,3.4314,3.4401,3.4402,3.4403,3.4325,3.4321,3.4317,3.4313,3.4408,3.4414,3.4421,0,0,0,0,0,0,0,0,0,0,0,0,0,3.4173,3.4082,3.4312,3.4285,3.4284,3.4401,3.4402,3.4404,3.4326,3.4321,3.4316,3.4311,3.4405,3.4413,3.4422,3.457,0,0,3.4447,3.4451,0,0,0,0,0,0,0,0,3.4167,3.4182,3.4288,3.4287,3.4286,3.4346,3.4353,3.4459,3.4327,3.431,3.4315,3.4309,3.4393,3.4402,3.4429,3.4574,3.4578,3.4448,3.4453,3.4456,3.4459,0,0,0,0,0,0,0,3.4161,3.4177,3.4347,3.429,3.4288,3.427,3.4278,3.4373,3.4378,3.4311,3.4306,3.4317,3.4391,3.4421,3.4431,3.458,3.4447,3.4455,3.446,3.4463,3.4848,3.4853,0,0,0,0,0,0,3.4156,3.4172,3.4344,3.435,3.4213,3.4278,3.4287,3.4332,3.4376,3.4378,3.4321,3.4313,3.4409,3.4421,3.4434,3.4608,3.4456,3.4464,3.4469,3.4843,3.4849,3.4855,0,0,0,0,0,0,3.4152,3.4173,3.4341,3.426,3.4279,3.4287,3.4338,3.4336,3.4366,3.4384,3.4384,3.4351,3.4406,3.4422,3.4536,3.461,3.4468,3.4475,3.4837,3.4845,3.4852,3.4959,0,0,0,0,0,0,3.4145,3.4171,3.4227,3.4261,3.4284,3.4441,3.4343,3.4342,3.438,3.4371,3.4412,3.4414,3.4404,3.4524,3.4544,3.4619,3.4482,3.483,3.484,3.485,3.4949,3.4969,3.4987,0,0,0,0,0,3.4137,3.4255,3.4231,3.4252,3.4354,3.4445,3.4458,3.4443,3.4387,3.4443,3.4454,3.4413,3.4599,3.4536,3.4558,3.4637,3.4825,3.4837,3.4849,3.494,3.4965,3.4987,0,0,0,0,0,0,3.4232,3.4259,3.4232,3.4365,3.4403,3.4432,3.4503,3.4471,3.4527,3.4515,3.4495,3.4505,3.4624,3.4642,3.4571,3.4781,3.4703,3.472,3.4765,3.4789,3.4808,3.48,3.4489,0,0,0,0,0,3.4267,3.4338,3.4359,3.4474,3.4495,3.4496,3.4535,3.4519,3.4559,3.4575,3.4594,3.4635,3.4701,3.4747,3.481,3.4951,3.4958,3.5016,3.5035,3.5051,3.5065,3.5139,3.5165,3.4894,3.4894,3.4893,0,0,3.4343,3.4367,3.4413,3.4494,3.4521,3.4595,3.451,3.4592,3.4647,3.4588,3.4695,3.4711,3.4754,3.4882,3.4939,3.4901,3.5142,3.5066,3.5078,3.5084,3.5154,3.518,3.5202,3.4902,3.49,3.4899,0,0,3.4518,3.4544,3.4641,3.467,3.4713,3.4712,3.4736,3.4769,3.4777,3.4884,3.484,3.4905,3.5023,3.5054,3.5086,3.5271,3.5235,3.5293,3.5393,3.5465,3.5486,3.5505,3.5569,3.5593,3.5307,3.5308,3.5308,0,3.4606,3.4715,3.4695,3.478,3.4816,3.4765,3.4862,3.4892,3.4954,3.498,3.4936,3.508,3.5106,3.5239,3.5284,3.5312,3.5337,3.5287,3.5485,3.5503,3.5521,3.5581,3.5606,3.5314,3.5314,3.5313,3.5312,0,3.4821,3.4897,3.4971,3.5029,3.5074,3.5165,3.5159,3.5207,3.5187,3.5192,3.5301,3.533,3.5397,3.5428,3.5411,3.5558,3.5533,3.5487,3.5408,3.5553,3.561,3.5633,3.5324,3.5321,3.5319,3.5318,0,0,3.5058,3.5103,3.513,3.5155,3.5197,3.5256,3.5345,3.5408,3.5449,3.5493,3.5566,3.5666,3.5623,3.5659,3.5645,3.5709,3.5851,3.5655,3.5656,3.5689,3.6013,3.6045,3.6073,3.5827,3.5832,3.5835,3.6008,0,3.5232,3.5384,3.5368,3.5513,3.5582,3.5534,3.5611,3.5645,3.5652,3.5711,3.5719,3.5788,3.5728,3.5749,3.581,3.5821,3.5915,3.5808,3.5894,3.5898,3.5883,3.6103,3.6138,3.6299,3.6031,3.6034,3.6037,0,3.5456,3.5505,3.5657,3.5686,3.5715,3.5784,3.584,3.5899,3.5937,3.5937,3.5976,3.5951,3.6039,3.5959,3.6081,3.6008,3.6043,3.6053,3.6059,3.6065,3.5975,3.6113,3.6351,3.6375,3.6072,3.607,3.6067,0,3.561,3.5716,3.5819,3.5842,3.588,3.593,3.5948,3.5981,3.602,3.6069,3.6094,3.6154,3.6187,3.6234,3.6226,3.6169,3.6349,3.6269,3.6351,3.6351,3.639,3.6387,3.6635,3.6416,3.6415,3.6415,3.6414,0,3.5805,3.5899,3.5888,3.5952,3.6055,3.6036,3.614,3.6152,3.6182,3.6246,3.621,3.6271,3.6257,3.6319,3.6313,3.6413,3.6429,3.6431,3.6428,3.6433,3.6433,3.6454,3.6442,3.6421,3.642,3.6419,3.6417,0,3.5995,3.5991,3.61,3.6127,3.6135,3.621,3.6233,3.6293,3.6296,3.6378,3.6397,3.6402,3.6472,3.6468,3.6549,3.6545,3.6668,3.6653,3.6654,3.665,3.6732,3.6723,3.7001,3.7035,3.6795,3.6798,3.68,0,3.6118,3.6189,3.6222,3.6262,3.6283,3.6349,3.6388,3.6372,3.6414,3.6461,3.6515,3.6582,3.6634,3.6749,3.676,3.6821,3.6806,3.6899,3.6815,3.6817,3.6805,3.68,3.6806,3.6915,3.6918,3.692,3.6922,0,3.6338,3.6332,3.6388,3.6444,3.6491,3.6535,3.6575,3.661,3.6598,3.6647,3.6718,3.6758,3.6839,3.6905,3.6963,3.6982,3.695,3.6948,3.697,3.6975,3.6972,3.6973,3.6697,3.6942,3.694,3.6938,3.6937,3.6936,3.6496,3.6556,3.6588,3.6652,3.668,3.6717,3.6774,3.6783,3.6841,3.6904,3.6892,3.6971,3.7006,3.708,3.7105,3.7166,3.7133,3.7165,3.7173,3.7181,3.7189,3.6964,3.7177,3.7176,3.7176,3.7175,3.7175,0,3.6712,3.6729,3.6788,3.6844,3.6894,3.6858,3.69,3.6944,3.7014,3.7049,3.71,3.718,3.7244,3.726,3.7321,3.7367,3.7354,3.7384,3.7379,3.7384,3.7216,3.719,3.7393,3.7393,3.7393,3.7393,3.7393,3.7393,3.6829,3.6927,3.6925,3.7037,3.7054,3.713,3.7156,3.7191,3.7218,3.7309,3.7361,3.737,3.7397,3.7459,3.7516,3.7519,3.7543,3.7578,3.7575,3.7418,3.7396,3.7375,3.735,3.7584,3.7584,3.7737,3.7739,3.774]},{"header":{"parameterUnit":"m.s-1","parameterCategory":1,"la1":30.2991,"la2":30.254,"lo1":-89.0895,"lo2":-89.0444,"dy":0.0017,"dx":0.0017,"nx":28,"ny":28,"refTime":"2024-05-27T09:00:00:Z","depth":0,"parameterNumber":3,"parameterNumberName":"V-component_of_WINDS"},"data":[0,0,0,0,0,0,0,0,0,0,0,0,0,0,0,0,0,0,0,0,0,0,0,0,0,0,0,0,0,0,0,0,0,0,0,0,0,0,0,0,0,0,0,0,0,0,0,0,0,0,0,0,0,0,0,0,0,0,2.8944,2.8945,0,2.9004,2.9005,2.9005,2.8977,2.8976,2.8974,2.8973,2.9032,2.9034,2.9037,0,0,0,0,0,0,0,0,0,0,0,0,0,2.8803,2.8805,2.8944,2.8945,2.8946,2.9004,2.9005,2.9005,2.8977,2.8976,2.8974,2.8972,2.9031,2.9034,2.9038,0,0,0,0,0,0,0,0,0,0,0,0,0,2.8863,2.8806,2.8944,2.8939,2.8939,2.9004,2.9005,2.9006,2.8978,2.8976,2.8973,2.8971,2.9029,2.9034,2.9038,2.9111,0,0,2.9052,2.9054,0,0,0,0,0,0,0,0,2.886,2.8869,2.8939,2.8939,2.894,2.8981,2.8976,2.9041,2.8978,2.8963,2.8973,2.897,2.9016,2.9022,2.9038,2.9113,2.9116,2.9052,2.9055,2.9057,2.9058,0,0,0,0,0,0,0,2.8856,2.8866,2.8968,2.894,2.894,2.8932,2.8938,2.8988,2.9001,2.8964,2.8962,2.897,2.9016,2.9034,2.9039,2.9117,2.9052,2.9056,2.9059,2.906,2.9253,2.9255,0,0,0,0,0,0,2.8852,2.8863,2.8966,2.8969,2.8893,2.8937,2.8944,2.897,2.9001,2.9004,2.8972,2.8968,2.9027,2.9034,2.9041,2.9127,2.9057,2.9061,2.9063,2.9251,2.9253,2.9256,0,0,0,0,0,0,2.8849,2.8862,2.8963,2.8916,2.8928,2.8942,2.8971,2.8972,2.899,2.9007,2.9009,2.8987,2.9026,2.9035,2.9093,2.9128,2.9063,2.9067,2.9248,2.9251,2.9255,2.93,0,0,0,0,0,0,2.8845,2.8861,2.8889,2.8916,2.8931,2.9016,2.8973,2.8975,2.8998,2.8994,2.9022,2.9024,2.9024,2.9087,2.9098,2.9133,2.907,2.9245,2.9249,2.9254,2.9295,2.9304,2.9312,0,0,0,0,0,2.884,2.89,2.8891,2.8904,2.8967,2.9018,2.9026,2.9026,2.9001,2.9029,2.9039,2.9023,2.9123,2.9093,2.9105,2.9143,2.9242,2.9248,2.9253,2.9291,2.9302,2.9312,0,0,0,0,0,0,2.8876,2.8903,2.8894,2.8964,2.8989,2.9013,2.9049,2.9038,2.907,2.9065,2.9063,2.9069,2.913,2.9142,2.9108,2.9213,2.9179,2.9187,2.9203,2.9214,2.9223,2.9218,2.9074,0,0,0,0,0,2.8892,2.8932,2.8953,2.9013,2.9026,2.9035,2.9058,2.9055,2.9081,2.9091,2.9106,2.9131,2.9167,2.9191,2.9226,2.9297,2.9301,2.9328,2.9337,2.9344,2.9351,2.9387,2.9399,2.9274,2.9274,2.9274,0,0,2.8925,2.8945,2.8971,2.902,2.904,2.908,2.9044,2.9089,2.9119,2.9098,2.9154,2.9166,2.9193,2.9257,2.9286,2.9269,2.9386,2.9351,2.9356,2.9359,2.9394,2.9406,2.9416,2.9278,2.9277,2.9277,0,0,2.9007,2.9026,2.9077,2.9097,2.9127,2.9132,2.9144,2.9171,2.9178,2.9234,2.9218,2.9253,2.9317,2.9336,2.9355,2.9442,2.9428,2.9453,2.9498,2.9534,2.9544,2.9552,2.9582,2.9593,2.946,2.946,2.946,0,2.9044,2.9106,2.9105,2.9151,2.9172,2.9155,2.9206,2.9225,2.9264,2.9279,2.9259,2.9338,2.9355,2.9423,2.9444,2.946,2.9473,2.945,2.9542,2.9551,2.9559,2.9587,2.9599,2.9463,2.9463,2.9462,2.9462,0,2.9149,2.9192,2.923,2.9268,2.9294,2.9342,2.9347,2.9373,2.9368,2.9376,2.9432,2.9452,2.949,2.9506,2.9502,2.9573,2.9562,2.9543,2.9507,2.9574,2.96,2.9611,2.9467,2.9466,2.9465,2.9465,0,0,2.9255,2.9292,2.9305,2.9322,2.9353,2.9385,2.9432,2.9469,2.9491,2.9518,2.9556,2.961,2.9592,2.9613,2.961,2.9642,2.9708,2.9618,2.9619,2.9633,2.9786,2.98,2.9812,2.9699,2.9701,2.9702,2.9783,0,2.9337,2.942,2.942,2.9495,2.9534,2.9518,2.9558,2.958,2.9588,2.9621,2.9629,2.9667,2.9641,2.9653,2.9684,2.9693,2.9738,2.9687,2.9733,2.9734,2.9726,2.9826,2.9841,2.9917,2.9794,2.9796,2.9797,0,2.9445,2.9476,2.9555,2.9579,2.9595,2.9632,2.9665,2.9697,2.9722,2.9725,2.9748,2.974,2.9786,2.975,2.9812,2.9778,2.9796,2.9803,2.9806,2.981,2.9769,2.9832,2.9941,2.9952,2.9813,2.9812,2.9811,0,2.9512,2.9574,2.9629,2.9644,2.9673,2.9699,2.9712,2.9735,2.9757,2.9786,2.98,2.9834,2.9852,2.9878,2.9879,2.9853,2.9941,2.9905,2.9944,2.9944,2.9963,2.9961,3.0075,2.9976,2.9976,2.9976,2.9976,0,2.9604,2.9653,2.9659,2.9693,2.9747,2.9746,2.9799,2.9809,2.9829,2.9864,2.9852,2.9885,2.9884,2.9917,2.9918,2.9969,2.9977,2.998,2.998,2.9981,2.998,2.9992,2.9987,2.9979,2.9978,2.9978,2.9977,0,2.9688,2.9695,2.9753,2.9776,2.9783,2.9822,2.9841,2.9872,2.9879,2.9922,2.9933,2.9942,2.998,2.9984,3.0028,3.0029,3.0089,3.0084,3.0081,3.008,3.0118,3.0114,3.0243,3.0259,3.015,3.0151,3.0152,0,2.9745,2.9783,2.981,2.9832,2.9847,2.9884,2.9906,2.9906,2.993,2.996,2.9987,3.0024,3.0053,3.0114,3.0125,3.0158,3.0152,3.0195,3.0157,3.0157,3.0151,3.0149,3.0152,3.0202,3.0203,3.0204,3.0205,0,2.9846,2.9847,2.9881,2.9915,2.9942,2.9969,2.9994,3.0012,3.0015,3.0042,3.0081,3.0104,3.0149,3.0185,3.0217,3.0229,3.0218,3.0217,3.0228,3.0229,3.0225,3.0226,3.01,3.0214,3.0213,3.0213,3.0212,3.0212,2.9918,2.995,2.9973,3.001,3.0029,3.0053,3.0083,3.0093,3.0126,3.0162,3.016,3.0203,3.0225,3.0267,3.0282,3.0314,3.03,3.0315,3.0319,3.0323,3.0326,3.0221,3.032,3.032,3.032,3.032,3.0319,0,3.0017,3.0031,3.0065,3.0101,3.0129,3.0117,3.0143,3.0168,3.0205,3.0227,3.0257,3.03,3.0335,3.0348,3.0382,3.0405,3.04,3.0414,3.0411,3.0414,3.0338,3.0325,3.0417,3.0417,3.0417,3.0417,3.0417,3.0417,3.0072,3.0124,3.0128,3.019,3.0203,3.0245,3.0261,3.0282,3.03,3.0349,3.0378,3.0387,3.0405,3.044,3.047,3.0473,3.0485,3.0501,3.0502,3.043,3.042,3.041,3.0398,3.0504,3.0504,3.0575,3.0576,3.0576]}]]